Wind_Speed
34 33 32 31 30 29 28 28 29 29 28 28 29 29 29 28 28 29 29 29 29 30 30 30 30 30 30 30 30 30 30 31 31 31 31 30 30 31 31 31 31 31 30
35 35 34 33 32 31 30 30 30 30 31 31 31 31 31 31 31 31 30 31 32 31 31 32 32 32 32 32 32 32 32 32 32 32 32 32 32 33 33 33 32 32 32
36 35 36 35 34 33 32 31 31 31 32 33 33 33 33 33 34 33 33 33 33 33 32 33 33 33 32 33 33 33 34 34 34 35 35 35 35 34 35 34 34 34 34
36 35 36 36 35 33 33 32 33 33 34 34 34 34 35 35 35 36 35 34 34 34 34 34 34 34 34 34 34 35 35 36 36 37 37 37 37 36 36 36 36 36 36
36 36 36 35 35 35 34 34 34 35 35 35 35 36 36 37 37 37 37 36 36 35 35 35 35 35 35 35 35 36 36 37 37 38 39 39 38 38 38 38 38 38 38
38 36 36 36 36 36 36 36 36 36 36 37 37 38 38 38 39 39 38 37 37 37 37 37 37 37 37 37 37 37 38 38 38 39 39 40 40 40 40 40 40 40 40
40 38 38 37 36 36 37 37 37 38 38 39 39 39 39 40 39 40 39 39 39 39 39 39 39 39 39 39 39 39 40 40 40 40 41 41 41 41 41 41 41 41 41
39 38 38 37 37 37 38 39 39 39 39 39 40 40 40 41 41 41 41 40 41 40 41 41 41 41 41 42 41 41 42 42 42 42 42 42 42 42 42 43 42 43 43
38 39 39 38 38 38 39 40 40 40 40 40 41 42 42 42 43 42 41 41 41 41 42 42 43 43 43 43 43 44 44 43 43 43 44 44 44 44 44 44 44 44 44
38 40 40 39 38 39 39 40 40 40 41 42 43 43 43 43 43 43 42 43 43 43 43 44 43 44 45 45 45 45 45 45 45 45 46 46 46 46 46 46 46 46 46
37 39 40 39 39 39 39 40 41 42 42 42 42 42 42 43 43 44 43 43 44 44 44 45 45 46 46 46 47 47 47 47 47 47 47 47 48 48 48 48 48 48 48
38 38 40 40 40 40 40 40 41 42 42 42 42 42 42 43 44 44 45 44 45 45 45 45 46 46 46 47 47 47 47 47 47 48 48 49 49 49 49 49 49 50 49
36 38 39 40 40 41 41 41 42 42 44 44 45 45 44 44 45 46 47 47 47 47 48 47 47 47 47 48 48 48 48 48 49 49 49 50 50 50 50 50 50 50 50
37 38 38 40 41 41 42 43 43 44 45 45 45 46 47 47 47 47 48 48 48 47 48 47 47 47 48 48 49 48 48 48 50 50 50 50 50 50 51 51 51 51 52
39 39 39 40 41 41 42 43 44 45 45 46 46 47 48 48 49 49 49 49 49 49 50 48 47 47 48 49 49 49 49 50 51 51 51 51 51 51 51 52 52 52 53
38 39 39 41 42 43 43 43 45 46 46 46 47 48 49 49 49 49 49 50 50 51 51 49 49 49 49 50 51 52 51 51 51 52 52 52 52 52 52 52 52 53 53
41 41 41 41 42 44 45 46 46 46 46 47 47 48 49 49 49 49 49 50 50 51 51 50 50 50 50 50 51 52 52 52 52 52 52 53 53 53 53 52 53 53 53
41 41 42 42 43 44 45 46 47 47 47 47 48 48 48 49 49 49 49 50 50 50 51 51 51 51 50 50 51 53 53 52 52 52 52 53 52 52 52 52 52 52 52
41 41 43 44 44 45 46 46 47 48 48 48 48 48 48 48 48 48 50 50 50 50 50 50 51 51 51 51 52 52 53 53 53 52 51 51 51 51 51 51 51 51 51
41 41 43 44 45 45 47 48 49 48 48 47 47 47 47 47 47 48 48 48 48 48 48 49 50 51 51 51 51 51 51 51 52 52 51 50 51 51 50 50 50 50 50
41 42 43 44 45 46 47 47 48 47 46 46 47 47 47 47 47 47 46 47 47 47 47 48 49 50 50 51 50 50 49 49 50 50 50 49 49 49 49 49 49 50 49
41 42 43 44 45 46 46 46 46 47 47 47 47 47 47 46 46 46 46 46 46 47 47 47 47 48 48 48 49 49 48 49 49 48 48 48 48 48 48 49 48 48 48
41 41 42 43 44 45 46 45 45 46 46 47 46 46 46 46 46 46 45 45 45 45 46 46 47 47 47 48 48 48 47 48 48 48 48 48 48 47 48 48 47 46 46
41 41 42 43 44 44 45 45 45 46 46 46 46 46 46 46 46 45 44 44 44 45 45 46 46 45 46 47 47 47 47 47 47 47 47 47 47 47 46 46 46 45 44
41 42 44 45 45 45 45 45 46 46 46 46 46 46 45 45 45 44 44 44 44 44 45 45 44 44 44 45 47 47 47 46 45 45 46 46 45 45 44 44 43 43 42
43 44 44 45 45 45 45 45 45 45 44 44 44 44 44 44 44 43 43 43 44 44 44 44 44 43 44 44 45 46 46 45 44 43 43 43 43 42 41 40 40 41 40
Wind_Direction
241 242 245 247 249 250 251 254 255 257 258 259 261 264 267 269 271 273 274 275 275 276 276 276 277 277 277 278 278 278 278 279 280 280 281 282 283 283 283 283 284 284 284
242 243 244 246 249 252 254 255 256 257 259 260 262 264 266 269 271 273 274 275 275 276 277 277 277 277 278 278 278 278 279 279 279 280 281 282 282 283 282 282 283 284 284
243 244 244 245 249 252 254 255 257 258 261 261 262 264 265 268 270 272 275 276 277 276 274 276 276 276 277 278 278 278 279 279 280 281 282 282 283 283 282 282 282 282 283
242 243 245 245 248 251 253 256 258 260 262 262 263 265 266 268 270 272 275 276 277 276 275 276 276 276 277 278 278 278 279 279 280 281 281 281 281 281 281 281 281 281 282
242 243 244 246 247 250 252 256 259 261 262 263 264 266 267 269 271 272 273 275 276 276 277 276 275 276 277 278 279 279 280 281 281 281 281 281 280 280 280 279 279 280 281
242 244 245 247 248 251 254 257 259 262 264 265 266 267 268 269 271 272 272 273 273 274 275 275 275 276 277 278 279 279 280 281 282 281 281 281 280 280 279 279 279 280 280
242 246 248 249 249 252 255 258 260 263 265 267 268 269 269 269 270 271 271 271 272 273 273 275 275 276 277 278 279 279 280 281 282 281 281 281 280 280 279 279 279 279 279
243 246 249 250 250 254 257 260 262 264 265 267 269 270 270 269 270 271 271 271 271 272 274 275 276 277 278 278 278 279 280 281 281 281 280 280 280 280 280 279 279 279 279
244 246 249 250 252 255 258 261 264 265 266 267 269 270 271 271 270 270 271 271 271 272 273 275 276 277 278 278 278 278 279 280 280 280 280 280 280 280 280 280 279 279 278
247 248 251 253 255 256 259 261 264 265 266 268 269 270 270 271 270 270 270 271 270 271 272 273 275 276 277 278 278 278 278 279 279 280 280 280 280 280 280 280 279 279 279
250 251 252 256 256 258 260 262 264 266 267 268 268 269 269 270 270 271 270 270 269 270 271 272 273 275 275 276 277 278 278 279 279 279 279 280 279 279 280 279 279 279 279
252 253 254 257 258 260 262 263 265 266 267 268 269 269 270 271 271 271 271 270 269 270 271 272 272 274 275 276 277 277 278 279 279 279 279 280 280 279 279 279 279 279 279
255 255 255 257 260 262 264 266 266 266 268 269 270 271 271 272 272 272 272 272 271 271 271 272 272 274 275 276 277 277 278 279 280 280 280 280 279 279 279 279 279 279 279
258 258 259 259 262 264 266 266 266 267 268 269 271 272 271 272 272 272 273 274 274 273 273 273 273 273 274 276 277 277 278 279 280 281 281 280 280 280 279 279 279 279 279
259 260 262 263 262 264 265 266 267 268 269 270 271 272 272 273 274 274 274 275 275 274 274 274 274 274 275 276 277 278 279 279 280 281 281 280 279 279 280 279 279 279 279
260 262 264 264 263 264 265 267 268 269 270 271 272 273 274 274 274 275 275 276 276 276 275 275 275 274 275 276 277 278 279 279 280 280 280 280 279 279 279 280 279 279 279
262 263 264 265 265 266 267 268 269 270 271 273 274 274 275 275 274 275 275 275 276 275 275 276 275 275 275 276 278 278 279 280 280 280 280 280 279 279 280 280 281 280 279
264 265 266 267 268 269 269 270 272 272 273 275 275 275 275 275 275 275 276 276 276 275 276 277 276 276 276 277 278 279 279 280 279 279 280 280 280 281 281 281 281 281 280
266 267 269 269 270 270 271 273 274 274 275 275 276 275 275 276 275 276 276 276 276 276 277 277 277 277 277 278 278 278 279 279 279 279 280 280 281 281 281 281 281 281 280
268 269 270 271 271 272 273 275 275 275 276 275 275 275 275 275 276 277 277 277 277 276 278 279 278 277 277 277 278 278 278 279 279 279 280 281 281 282 281 281 281 281 280
269 270 271 272 273 274 275 275 274 274 274 275 274 275 276 276 276 276 276 277 276 277 278 280 279 279 279 278 277 278 279 278 279 280 280 281 281 281 281 281 281 281 280
271 272 272 273 274 276 276 275 274 273 273 275 275 274 275 275 275 275 276 276 277 277 278 280 280 280 279 278 278 279 279 279 280 280 280 280 281 281 281 282 281 281 280
272 273 274 275 275 276 275 275 275 274 273 274 275 275 274 275 275 275 275 275 277 279 279 281 282 281 280 280 280 281 281 282 282 280 279 279 280 281 282 282 282 281 281
274 275 277 278 278 277 276 275 275 275 275 274 274 274 274 274 274 275 275 277 279 279 280 282 283 282 281 281 281 281 282 283 283 282 280 280 281 282 282 282 282 281 281
276 277 278 279 279 279 278 277 276 276 276 275 274 274 274 275 275 275 276 278 279 280 281 282 282 282 281 282 282 283 283 284 284 283 282 282 282 282 282 283 282 282 281
278 279 279 279 279 279 279 278 277 277 277 276 275 274 274 275 275 275 277 279 279 280 281 281 281 281 282 283 283 283 284 284 284 284 283 282 282 283 283 282 282 282 281
Height
5801 5804 5806 5808 5809 5811 5812 5813 5814 5815 5816 5816 5817 5817 5817 5817 5817 5817 5817 5816 5816 5815 5814 5814 5813 5812 5811 5811 5810 5809 5808 5807 5807 5806 5805 5803 5802 5801 5800 5799 5798 5797 5796
5794 5796 5799 5801 5803 5804 5805 5807 5808 5809 5809 5810 5810 5810 5811 5811 5810 5810 5810 5809 5809 5808 5808 5807 5806 5805 5805 5804 5803 5802 5801 5800 5799 5798 5797 5796 5795 5794 5793 5792 5791 5790 5789
5786 5789 5791 5793 5795 5797 5798 5800 5801 5801 5802 5803 5803 5803 5804 5804 5803 5803 5803 5802 5802 5801 5800 5800 5799 5798 5797 5796 5795 5795 5794 5793 5792 5791 5790 5789 5788 5786 5785 5784 5783 5782 5781
5778 5781 5783 5785 5788 5789 5791 5792 5793 5794 5795 5795 5796 5796 5796 5796 5796 5795 5795 5795 5794 5793 5793 5792 5791 5791 5790 5789 5788 5787 5786 5785 5784 5783 5782 5780 5779 5778 5777 5776 5775 5774 5773
5769 5772 5775 5777 5779 5781 5783 5784 5785 5786 5787 5787 5787 5788 5788 5788 5788 5787 5787 5786 5786 5785 5785 5784 5783 5782 5781 5780 5779 5778 5777 5776 5775 5774 5773 5771 5770 5769 5768 5767 5766 5765 5764
5761 5764 5766 5769 5771 5773 5775 5776 5777 5777 5778 5779 5779 5779 5779 5779 5779 5778 5778 5778 5777 5777 5776 5776 5775 5774 5773 5772 5771 5770 5769 5767 5766 5765 5763 5762 5761 5759 5758 5757 5756 5755 5754
5753 5756 5758 5760 5762 5764 5766 5767 5768 5769 5769 5769 5769 5770 5770 5769 5769 5769 5769 5768 5768 5768 5767 5766 5766 5765 5764 5763 5761 5760 5759 5758 5756 5755 5754 5752 5751 5749 5748 5747 5746 5745 5744
5744 5747 5749 5751 5753 5755 5756 5757 5758 5759 5759 5759 5759 5759 5760 5760 5759 5759 5759 5758 5758 5758 5757 5757 5756 5755 5754 5753 5752 5750 5749 5747 5746 5745 5743 5742 5740 5739 5737 5736 5735 5734 5733
5735 5738 5740 5742 5744 5745 5747 5748 5749 5749 5749 5749 5749 5749 5749 5749 5749 5749 5748 5748 5748 5747 5747 5746 5745 5745 5744 5743 5741 5740 5738 5737 5735 5734 5733 5731 5730 5728 5726 5725 5724 5722 5721
5727 5729 5731 5733 5734 5736 5737 5738 5739 5739 5739 5739 5738 5738 5738 5738 5738 5738 5738 5737 5737 5736 5736 5735 5734 5733 5733 5731 5730 5729 5727 5726 5724 5723 5721 5720 5718 5717 5715 5713 5712 5711 5709
5718 5720 5722 5724 5725 5726 5727 5728 5729 5728 5728 5728 5728 5727 5727 5726 5726 5726 5727 5726 5725 5725 5724 5723 5722 5722 5721 5720 5719 5717 5716 5714 5713 5711 5709 5708 5706 5704 5703 5701 5699 5698 5696
5710 5711 5713 5715 5716 5717 5717 5718 5718 5718 5718 5717 5717 5716 5716 5715 5715 5714 5714 5714 5714 5713 5712 5711 5710 5709 5709 5708 5706 5705 5703 5702 5700 5698 5697 5695 5694 5692 5690 5688 5686 5684 5682
5701 5702 5704 5706 5706 5707 5707 5707 5708 5707 5707 5706 5706 5705 5704 5704 5703 5702 5702 5701 5701 5701 5699 5698 5697 5697 5696 5695 5694 5693 5691 5689 5687 5685 5684 5682 5680 5678 5676 5674 5672 5670 5668
5692 5693 5695 5696 5697 5697 5697 5697 5697 5697 5696 5695 5695 5694 5693 5692 5691 5690 5689 5688 5688 5688 5687 5686 5685 5684 5683 5682 5681 5679 5677 5676 5674 5672 5670 5668 5667 5665 5662 5660 5658 5656 5654
5683 5684 5685 5686 5686 5686 5686 5686 5686 5685 5685 5684 5683 5682 5681 5680 5678 5678 5677 5675 5675 5674 5675 5673 5672 5671 5670 5669 5667 5665 5664 5662 5660 5658 5656 5654 5653 5651 5649 5646 5644 5642 5640
5673 5674 5674 5675 5675 5676 5675 5675 5674 5674 5673 5672 5671 5669 5668 5667 5665 5664 5663 5662 5661 5660 5660 5659 5658 5657 5656 5655 5653 5651 5650 5648 5646 5644 5642 5640 5639 5637 5634 5632 5630 5628 5625
5663 5663 5664 5664 5664 5664 5664 5663 5663 5662 5661 5659 5658 5656 5654 5653 5652 5651 5650 5649 5647 5646 5645 5645 5644 5642 5641 5641 5639 5637 5636 5634 5632 5630 5628 5626 5624 5622 5619 5617 5615 5613 5610
5652 5652 5652 5652 5652 5652 5651 5651 5650 5649 5648 5646 5644 5642 5640 5639 5638 5637 5636 5635 5634 5632 5631 5631 5630 5628 5627 5626 5625 5623 5621 5619 5617 5615 5613 5611 5609 5606 5604 5602 5599 5597 5595
5641 5641 5641 5641 5640 5640 5639 5638 5637 5636 5634 5633 5631 5629 5627 5626 5625 5624 5623 5621 5620 5618 5617 5616 5616 5614 5613 5611 5610 5608 5606 5604 5602 5601 5598 5596 5594 5591 5589 5587 5584 5582 5580
5629 5629 5629 5629 5628 5627 5626 5625 5624 5623 5621 5619 5617 5616 5614 5613 5612 5611 5609 5608 5606 5605 5603 5602 5601 5600 5599 5596 5595 5593 5592 5590 5588 5586 5584 5581 5579 5577 5574 5572 5570 5568 5565
5618 5617 5617 5617 5616 5615 5613 5612 5610 5609 5608 5606 5605 5603 5602 5600 5599 5597 5596 5595 5593 5592 5591 5589 5588 5587 5585 5583 5581 5579 5578 5576 5574 5572 5570 5568 5565 5562 5560 5557 5555 5553 5550
5606 5605 5605 5604 5603 5602 5600 5598 5597 5596 5594 5593 5592 5590 5589 5587 5586 5584 5583 5582 5581 5579 5578 5576 5575 5573 5572 5569 5567 5565 5563 5562 5561 5559 5555 5553 5550 5548 5546 5543 5541 5538 5536
5594 5593 5592 5591 5590 5588 5586 5585 5583 5582 5581 5579 5578 5577 5576 5574 5573 5572 5570 5569 5568 5566 5565 5563 5561 5560 5558 5556 5554 5552 5550 5547 5546 5544 5541 5540 5537 5535 5532 5530 5527 5525 5523
5582 5581 5579 5578 5576 5575 5573 5571 5569 5568 5567 5566 5565 5564 5562 5561 5560 5559 5558 5557 5556 5554 5553 5550 5549 5547 5544 5542 5540 5538 5536 5534 5532 5529 5527 5526 5524 5522 5519 5516 5514 5512 5510
5569 5568 5566 5565 5563 5562 5560 5558 5556 5555 5553 5553 5552 5550 5549 5548 5547 5546 5545 5545 5543 5542 5539 5537 5535 5533 5531 5529 5527 5525 5523 5520 5519 5517 5514 5512 5511 5509 5507 5504 5501 5499 5497
5556 5554 5553 5551 5549 5548 5546 5544 5542 5541 5540 5540 5539 5537 5536 5535 5534 5533 5532 5531 5530 5529 5527 5525 5523 5520 5519 5517 5514 5512 5509 5507 5506 5505 5502 5500 5498 5495 5495 5492 5489 5487 5485